DW3147 Weather Reports


Display with metric or nautical units.
time (UTC)temp
F
wind
direction
speed
MPH
gust
MPH
rain 1hr
in
rain 24hr
in
rain mn
in
humidity
%
barometer
mb
20220704214330 58 127 0.0 2.0 0.00 0.35 0.22 94 1015.2
20220704211331 58 127 0.0 2.0 0.01 0.35 0.22 95 1015.1
20220704210330 57 127 1.0 4.0 0.01 0.35 0.22 96 1015.1
20220704204331 57 122 0.0 3.0 0.01 0.35 0.22 95 1015.2
20220704203330 57 121 2.0 5.0 0.00 0.34 0.21 95 1015.2
20220704202331 57 119 0.0 7.0 0.00 0.34 0.21 94 1015.2
20220704201331 57 116 0.0 4.0 0.00 0.34 0.21 94 1015.0
20220704200331 57 152 2.0 4.0 0.00 0.34 0.21 95 1014.9
20220704195330 57 39 0.0 4.0 0.00 0.34 0.21 95 1014.8
20220704193331 56 116 0.0 5.0 0.00 0.34 0.21 96 1014.6
20220704192330 56 64 0.0 5.0 0.00 0.35 0.21 96 1014.4
20220704190331 56 107 1.0 6.0 0.00 0.37 0.21 96 1014.4
20220704185332 56 58 1.0 6.0 0.00 0.38 0.21 96 1014.4
20220704184330 56 5 4.0 7.0 0.00 0.39 0.21 96 1014.3
20220704182331 56 50 1.0 4.0 0.00 0.40 0.21 97 1014.3
20220704175331 56 349 1.0 6.0 0.00 0.44 0.21 97 1014.2
20220704174331 56 88 3.0 8.0 0.00 0.44 0.21 97 1014.2
20220704173330 56 91 1.0 7.0 0.00 0.44 0.21 97 1014.2
20220704171330 56 102 0.0 3.0 0.00 0.44 0.21 97 1014.3
20220704170331 56 102 0.0 4.0 0.00 0.45 0.21 97 1014.3
20220704165331 55 76 2.0 8.0 0.00 0.45 0.21 97 1014.3
20220704164331 55 115 0.0 7.0 0.01 0.45 0.21 97 1014.3
20220704163331 56 80 3.0 11.0 0.01 0.46 0.21 97 1014.2
20220704160330 56 130 0.0 7.0 0.01 0.46 0.21 97 1014.1
20220704155330 55 119 3.0 6.0 0.01 0.46 0.21 97 1014.0
20220704154332 55 113 0.0 6.0 0.01 0.45 0.20 97 1014.0
20220704152331 55 125 2.0 7.0 0.01 0.45 0.20 97 1014.0
20220704151332 55 113 0.0 6.0 0.01 0.45 0.20 97 1013.9
20220704150330 55 111 4.0 6.0 0.01 0.45 0.20 97 1013.9
20220704145331 55 114 2.0 8.0 0.02 0.45 0.20 97 1013.8
20220704144331 55 115 4.0 9.0 0.01 0.44 0.19 97 1013.8
20220704143330 55 124 2.0 8.0 0.01 0.44 0.19 97 1013.8
20220704140330 55 108 1.0 4.0 0.01 0.44 0.19 97 1013.7
20220704134331 55 126 0.0 4.0 0.00 0.43 0.18 97 1013.8
20220704133332 54 107 0.0 4.0 0.00 0.45 0.18 97 1013.7
20220704132331 54 114 0.0 8.0 0.00 0.45 0.18 97 1013.7
20220704131331 54 179 0.0 0.0 0.01 0.45 0.18 97 1013.6
20220704130331 54 179 0.0 5.0 0.01 0.45 0.18 97 1013.6
20220704125331 54 126 0.0 2.0 0.01 0.45 0.18 97 1013.6
20220704123331 54 125 0.0 4.0 0.02 0.45 0.18 97 1013.5
20220704122331 54 107 1.0 6.0 0.02 0.45 0.18 97 1013.5
20220704120331 54 115 0.0 6.0 0.01 0.44 0.17 97 1013.4
20220704114331 54 113 0.0 4.0 0.01 0.43 0.16 97 1013.4
20220704113331 54 117 0.0 1.0 0.01 0.43 0.16 97 1013.3
20220704112331 54 117 0.0 2.0 0.01 0.43 0.16 97 1013.3
20220704111331 54 121 2.0 7.0 0.02 0.43 0.16 97 1013.2
20220704105331 55 115 0.0 4.0 0.03 0.42 0.15 97 1013.4
20220704104331 55 115 2.0 7.0 0.04 0.42 0.15 97 1013.4
20220704103331 55 116 1.0 4.0 0.05 0.42 0.15 97 1013.3
20220704102331 55 117 3.0 7.0 0.06 0.42 0.15 97 1013.3
20220704101331 55 111 4.0 6.0 0.06 0.41 0.14 97 1013.3
20220704100331 55 113 0.0 6.0 0.06 0.40 0.13 97 1013.3
20220704094331 55 109 0.0 6.0 0.05 0.38 0.11 97 1013.3
20220704093332 55 144 0.0 4.0 0.05 0.37 0.10 97 1013.3
20220704092331 55 117 4.0 6.0 0.05 0.36 0.09 97 1013.3
20220704091331 55 112 0.0 6.0 0.05 0.35 0.08 97 1013.3
20220704090331 55 109 0.0 4.0 0.04 0.34 0.07 97 1013.3
20220704085331 55 103 4.0 5.0 0.04 0.34 0.07 97 1013.3
20220704083331 55 109 3.0 7.0 0.03 0.32 0.05 96 1013.3
20220704082331 55 118 3.0 9.0 0.03 0.31 0.04 96 1013.3
20220704081331 55 130 5.0 8.0 0.03 0.30 0.03 97 1013.3
20220704080332 55 104 7.0 7.0 0.03 0.30 0.03 97 1013.3
20220704075331 55 111 7.0 9.0 0.04 0.30 0.03 96 1013.3
20220704073331 55 116 6.0 9.0 0.05 0.29 0.02 96 1013.3
20220704072331 55 115 4.0 8.0 0.04 0.28 0.01 96 1013.3
20220704071331 55 121 4.0 6.0 0.04 0.27 0.00 96 1013.4
20220704070331 55 112 4.0 6.0 0.04 0.27 0.00 96 1013.4
20220704065331 55 115 2.0 5.0 0.03 0.26 0.26 96 1013.4
20220704064331 55 110 0.0 6.0 0.02 0.25 0.25 96 1013.4
20220704062332 55 111 4.0 6.0 0.03 0.24 0.24 96 1013.4
20220704060331 55 118 4.0 8.0 0.05 0.23 0.23 96 1013.3
20220704055331 55 102 0.0 8.0 0.06 0.23 0.23 96 1013.2
20220704054331 55 115 2.0 7.0 0.06 0.23 0.23 96 1013.2
20220704053332 56 138 4.0 4.0 0.05 0.22 0.22 96 1013.3
20220704052331 55 123 1.0 7.0 0.04 0.21 0.21 96 1013.2
20220704051332 55 172 3.0 8.0 0.03 0.19 0.19 95 1013.3
20220704050332 55 124 3.0 8.0 0.02 0.18 0.18 95 1013.2
20220704045332 55 112 1.0 8.0 0.01 0.17 0.17 95 1013.3
20220704044331 55 124 2.0 10.0 0.01 0.17 0.17 95 1013.2
20220704041331 55 92 4.0 8.0 0.01 0.16 0.16 95 1013.1
20220704040331 55 104 1.0 8.0 0.01 0.16 0.16 95 1013.2
20220704035331 55 141 3.0 7.0 0.01 0.16 0.16 95 1013.2
20220704034331 56 117 2.0 9.0 0.01 0.16 0.16 94 1013.2
20220704032331 56 121 5.0 9.0 0.00 0.15 0.15 94 1013.2
20220704031331 56 128 4.0 7.0 0.01 0.15 0.15 94 1013.2
20220704030331 56 121 3.0 9.0 0.01 0.15 0.15 94 1013.1
20220704025332 56 113 0.0 10.0 0.01 0.15 0.15 94 1012.9
20220704024331 56 130 2.0 8.0 0.01 0.15 0.15 94 1012.9
20220704023332 56 94 2.0 9.0 0.01 0.15 0.15 94 1012.8
20220704022331 56 123 3.0 8.0 0.01 0.15 0.15 93 1012.8
20220704021331 56 103 2.0 11.0 0.00 0.14 0.14 94 1012.8
20220704020331 56 121 2.0 7.0 0.00 0.14 0.14 93 1012.7
20220704015332 56 82 1.0 8.0 0.00 0.14 0.14 93 1012.7
20220704014331 56 340 1.0 11.0 0.00 0.14 0.14 93 1012.7
20220704012331 57 127 2.0 9.0 0.00 0.14 0.14 93 1012.7
20220704011331 57 109 2.0 14.0 0.00 0.14 0.14 92 1012.8
20220704010331 57 109 1.0 10.0 0.00 0.14 0.14 92 1012.6
20220704005332 57 107 4.0 7.0 0.00 0.14 0.14 92 1012.6
20220704004331 57 128 4.0 8.0 0.00 0.14 0.14 92 1012.6
20220704003331 57 113 6.0 9.0 0.00 0.14 0.14 91 1012.6
20220704001332 58 134 1.0 6.0 0.00 0.14 0.14 92 1012.7
20220704000331 58 137 2.0 9.0 0.00 0.14 0.14 92 1012.6
20220703235331 58 129 1.0 7.0 0.00 0.14 0.14 92 1012.6
20220703234331 58 115 1.0 9.0 0.00 0.14 0.14 93 1012.6
20220703233331 57 130 2.0 10.0 0.00 0.14 0.14 93 1012.7
20220703231331 57 126 2.0 7.0 0.00 0.14 0.14 93 1012.7
20220703230331 57 133 0.0 8.0 0.00 0.14 0.14 93 1012.7
20220703225331 57 159 1.0 10.0 0.00 0.14 0.14 93 1012.8
20220703224331 57 117 1.0 12.0 0.00 0.14 0.14 92 1012.8
20220703223332 58 92 3.0 10.0 0.00 0.14 0.14 92 1012.8
20220703222332 58 126 2.0 7.0 0.00 0.14 0.14 92 1012.8
20220703221332 58 134 3.0 7.0 0.00 0.14 0.14 92 1012.8
20220703220331 58 98 6.0 8.0 0.00 0.14 0.14 93 1012.7